[[{"header":{"parameterUnit":"m.s-1","parameterCategory":1,"la1":30.2991,"la2":30.254,"lo1":-89.0895,"lo2":-89.0444,"dy":0.0017,"dx":0.0017,"nx":28,"ny":28,"refTime":"2024-05-03T21:00:00:Z","depth":0,"parameterNumber":2,"parameterNumberName":"U-component_of_WINDS"},"data":[0,0,0,0,0,0,0,0,0,0,0,0,0,0,0,0,0,0,0,0,0,0,0,0,0,0,0,0,0,0,0,0,0,0,0,0,0,0,0,0,0,0,0,0,0,0,0,0,0,0,0,0,0,0,0,0,0,0,-0.9889,-0.9889,0,-0.9848,-0.9848,-0.9847,-0.9799,-0.9798,-0.9797,-0.9797,-0.9753,-0.9753,-0.9752,0,0,0,0,0,0,0,0,0,0,0,0,0,-0.9926,-0.9925,-0.9889,-0.9889,-0.9888,-0.9848,-0.9848,-0.9847,-0.9799,-0.9798,-0.9797,-0.9796,-0.9753,-0.9753,-0.9752,0,0,0,0,0,0,0,0,0,0,0,0,0,-0.99,-0.9925,-0.9889,-0.9859,-0.9856,-0.9848,-0.9848,-0.9847,-0.9799,-0.9798,-0.9797,-0.9796,-0.9754,-0.9753,-0.9752,-0.977,0,0,-0.975,-0.975,0,0,0,0,0,0,0,0,-0.9901,-0.9898,-0.9864,-0.9861,-0.9858,-0.9828,-0.9844,-0.9821,-0.98,-0.9821,-0.9797,-0.9796,-0.9779,-0.9776,-0.977,-0.9768,-0.9766,-0.975,-0.9749,-0.9749,-0.9749,0,0,0,0,0,0,0,-0.9903,-0.99,-0.9873,-0.9864,-0.986,-0.9848,-0.9843,-0.984,-0.9806,-0.9819,-0.9815,-0.9811,-0.9777,-0.9771,-0.9769,-0.9765,-0.975,-0.9749,-0.9749,-0.9749,-0.9776,-0.9777,0,0,0,0,0,0,-0.991,-0.9902,-0.9874,-0.9872,-0.9877,-0.9848,-0.9843,-0.9838,-0.9806,-0.98,-0.9812,-0.9809,-0.9773,-0.977,-0.9767,-0.9787,-0.9749,-0.9748,-0.9748,-0.9774,-0.9776,-0.9777,0,0,0,0,0,0,-0.9911,-0.9908,-0.9876,-0.9886,-0.9881,-0.9849,-0.9844,-0.9838,-0.9833,-0.9801,-0.9795,-0.9813,-0.9772,-0.9768,-0.977,-0.9784,-0.9748,-0.9747,-0.9773,-0.9775,-0.9776,-0.9825,0,0,0,0,0,0,-0.9912,-0.9908,-0.9915,-0.9886,-0.988,-0.9879,-0.9845,-0.9838,-0.9832,-0.9827,-0.98,-0.9795,-0.9771,-0.9771,-0.9769,-0.9783,-0.9747,-0.9772,-0.9774,-0.9776,-0.9822,-0.9828,-0.9833,0,0,0,0,0,-0.9913,-0.9929,-0.9915,-0.9912,-0.9888,-0.988,-0.9877,-0.985,-0.9833,-0.9839,-0.9819,-0.9795,-0.9783,-0.9772,-0.9769,-0.9783,-0.9771,-0.9773,-0.9776,-0.9819,-0.9827,-0.9833,0,0,0,0,0,0,-0.9959,-0.9925,-0.9909,-0.9916,-0.9902,-0.9872,-0.9879,-0.9858,-0.9848,-0.9844,-0.981,-0.9805,-0.981,-0.9796,-0.9784,-0.9798,-0.9773,-0.9776,-0.9807,-0.9814,-0.982,-0.9823,-0.9746,0,0,0,0,0,-0.997,-0.9967,-0.9937,-0.9946,-0.994,-0.9911,-0.9907,-0.9887,-0.9871,-0.9864,-0.9844,-0.9828,-0.9821,-0.9817,-0.9808,-0.9819,-0.9813,-0.9828,-0.9833,-0.9838,-0.984,-0.9846,-0.9853,-0.9786,-0.9786,-0.9786,0,0,-0.9993,-0.9974,-0.9974,-0.9955,-0.9942,-0.9939,-0.9906,-0.9905,-0.9903,-0.9863,-0.9864,-0.9849,-0.9829,-0.9836,-0.9838,-0.9825,-0.9858,-0.9841,-0.9846,-0.9845,-0.985,-0.9856,-0.9862,-0.9787,-0.9787,-0.9787,0,0,-1.0033,-1.0018,-1.0025,-1.0012,-0.9992,-0.9973,-0.9975,-0.9949,-0.9937,-0.9938,-0.9909,-0.9906,-0.9893,-0.9881,-0.9873,-0.991,-0.9888,-0.9908,-0.9938,-0.9944,-0.995,-0.9954,-0.9968,-0.9973,-0.9911,-0.9911,-0.9911,0,-1.0063,-1.0059,-1.003,-1.0031,-1.0024,-0.999,-0.9997,-0.9986,-0.9964,-0.996,-0.9945,-0.993,-0.9915,-0.9919,-0.9928,-0.9922,-0.9924,-0.9911,-0.9951,-0.9956,-0.9959,-0.9972,-0.9978,-0.9913,-0.9913,-0.9913,-0.9913,0,-1.0098,-1.0095,-1.0103,-1.0084,-1.0078,-1.0081,-1.0054,-1.0051,-1.0033,-1.0015,-1.0016,-0.9996,-0.9984,-0.9983,-0.9964,-0.9985,-0.9977,-0.9958,-0.9932,-0.9969,-0.998,-0.9985,-0.9917,-0.9916,-0.9915,-0.9915,0,0,-1.0165,-1.0131,-1.0134,-1.0126,-1.0102,-1.0099,-1.0102,-1.009,-1.0089,-1.0075,-1.0077,-1.0068,-1.005,-1.0042,-1.0021,-1.0027,-1.0059,-1.0007,-1.0006,-1.0017,-1.0081,-1.0096,-1.0102,-1.0044,-1.0045,-1.0045,-1.0082,0,-1.0201,-1.0204,-1.0179,-1.0188,-1.0186,-1.0154,-1.0156,-1.0142,-1.0126,-1.0121,-1.0103,-1.0098,-1.0074,-1.0069,-1.0073,-1.0054,-1.0071,-1.0051,-1.0045,-1.0045,-1.0051,-1.0108,-1.0123,-1.0159,-1.0087,-1.0087,-1.0088,0,-1.0243,-1.0233,-1.0243,-1.022,-1.0218,-1.022,-1.0208,-1.0204,-1.0188,-1.0176,-1.0167,-1.0144,-1.0145,-1.0121,-1.0122,-1.011,-1.0106,-1.0096,-1.0097,-1.0095,-1.0069,-1.0108,-1.017,-1.0176,-1.0095,-1.0094,-1.0094,0,-1.0292,-1.0281,-1.0285,-1.0279,-1.0252,-1.0255,-1.0243,-1.0226,-1.0221,-1.021,-1.0207,-1.0196,-1.0191,-1.0183,-1.0159,-1.0143,-1.0163,-1.0136,-1.0153,-1.0154,-1.0159,-1.0159,-1.0221,-1.0156,-1.0156,-1.0156,-1.0156,0,-1.0335,-1.0343,-1.0307,-1.031,-1.0317,-1.0289,-1.0297,-1.0282,-1.0267,-1.0267,-1.0238,-1.0238,-1.0206,-1.0202,-1.0183,-1.0187,-1.0185,-1.0175,-1.017,-1.0178,-1.0179,-1.0175,-1.0172,-1.0157,-1.0157,-1.0157,-1.0156,0,-1.0391,-1.0368,-1.0371,-1.0345,-1.0339,-1.0346,-1.0324,-1.0326,-1.0308,-1.0308,-1.0306,-1.0279,-1.0274,-1.0248,-1.0237,-1.0224,-1.0235,-1.0224,-1.0241,-1.0238,-1.0256,-1.0255,-1.0318,-1.0325,-1.0255,-1.0256,-1.0257,0,-1.042,-1.0425,-1.0401,-1.0399,-1.0389,-1.0386,-1.0381,-1.0354,-1.035,-1.0332,-1.0336,-1.0329,-1.0321,-1.0314,-1.0293,-1.0284,-1.0274,-1.0296,-1.0272,-1.028,-1.0275,-1.0275,-1.0276,-1.0302,-1.0303,-1.0303,-1.0304,0,-1.0475,-1.0464,-1.0458,-1.0449,-1.0444,-1.0435,-1.0424,-1.0424,-1.0393,-1.0391,-1.0385,-1.038,-1.0368,-1.0362,-1.035,-1.0338,-1.0316,-1.0312,-1.0315,-1.0324,-1.0333,-1.0329,-1.0256,-1.031,-1.031,-1.0309,-1.0309,-1.0309,-1.0519,-1.0522,-1.0506,-1.0501,-1.049,-1.0481,-1.0482,-1.0465,-1.046,-1.0449,-1.0433,-1.043,-1.0414,-1.0396,-1.0386,-1.0384,-1.0371,-1.0376,-1.0377,-1.0379,-1.0384,-1.0334,-1.0381,-1.0381,-1.0381,-1.0381,-1.038,0,-1.0573,-1.0561,-1.0556,-1.0543,-1.0539,-1.052,-1.0507,-1.0505,-1.0503,-1.049,-1.0484,-1.0479,-1.0472,-1.0451,-1.0442,-1.0444,-1.0434,-1.0443,-1.0443,-1.0441,-1.0395,-1.0393,-1.0451,-1.0451,-1.0451,-1.0451,-1.0451,-1.0451,-1.06,-1.0605,-1.0592,-1.0592,-1.0579,-1.0577,-1.0572,-1.0563,-1.0553,-1.0548,-1.0543,-1.053,-1.0514,-1.0504,-1.0497,-1.0491,-1.049,-1.0502,-1.0493,-1.045,-1.0444,-1.0437,-1.0435,-1.0502,-1.0502,-1.0539,-1.0539,-1.054]},{"header":{"parameterUnit":"m.s-1","parameterCategory":1,"la1":30.2991,"la2":30.254,"lo1":-89.0895,"lo2":-89.0444,"dy":0.0017,"dx":0.0017,"nx":28,"ny":28,"refTime":"2024-05-03T21:00:00:Z","depth":0,"parameterNumber":3,"parameterNumberName":"V-component_of_WINDS"},"data":[0,0,0,0,0,0,0,0,0,0,0,0,0,0,0,0,0,0,0,0,0,0,0,0,0,0,0,0,0,0,0,0,0,0,0,0,0,0,0,0,0,0,0,0,0,0,0,0,0,0,0,0,0,0,0,0,0,0,3.2628,3.2628,0,3.2658,3.2658,3.2659,3.2663,3.2663,3.2663,3.2663,3.269,3.2691,3.2692,0,0,0,0,0,0,0,0,0,0,0,0,0,3.2571,3.2572,3.2628,3.2628,3.2628,3.2658,3.2658,3.2659,3.2663,3.2663,3.2663,3.2662,3.269,3.2691,3.2692,0,0,0,0,0,0,0,0,0,0,0,0,0,3.2598,3.2572,3.2627,3.2634,3.2635,3.2658,3.2658,3.2659,3.2663,3.2663,3.2663,3.2662,3.2689,3.2691,3.2692,3.2709,0,0,3.2697,3.2698,0,0,0,0,0,0,0,0,3.2596,3.26,3.2633,3.2634,3.2635,3.2657,3.2649,3.2676,3.2663,3.2653,3.2662,3.2662,3.2679,3.2681,3.2688,3.2711,3.2712,3.2697,3.2698,3.2699,3.2699,0,0,0,0,0,0,0,3.2594,3.2598,3.2639,3.2633,3.2635,3.2635,3.2638,3.2654,3.2667,3.2653,3.2654,3.2658,3.268,3.2686,3.2688,3.2712,3.2697,3.2698,3.2699,3.27,3.2751,3.2752,0,0,0,0,0,0,3.2592,3.2597,3.2639,3.264,3.2614,3.2636,3.264,3.265,3.2667,3.267,3.2658,3.2658,3.2684,3.2687,3.2689,3.2711,3.2699,3.27,3.2701,3.2751,3.2752,3.2752,0,0,0,0,0,0,3.259,3.2595,3.2637,3.2619,3.2624,3.2638,3.2649,3.2651,3.2658,3.2671,3.2673,3.2663,3.2684,3.2687,3.2705,3.2712,3.2701,3.2702,3.275,3.2751,3.2752,3.2755,0,0,0,0,0,0,3.2589,3.2595,3.2602,3.2619,3.2625,3.2653,3.2649,3.2652,3.2661,3.2661,3.2676,3.2678,3.2684,3.2703,3.2706,3.2714,3.2703,3.275,3.2751,3.2752,3.2754,3.2755,3.2757,0,0,0,0,0,3.2587,3.26,3.2602,3.2607,3.2635,3.2653,3.2657,3.2664,3.2661,3.2668,3.2677,3.2677,3.2711,3.2704,3.2709,3.2717,3.2749,3.275,3.2752,3.2753,3.2755,3.2757,0,0,0,0,0,0,3.2582,3.2603,3.2605,3.2625,3.2638,3.2654,3.2663,3.2666,3.2679,3.2678,3.2686,3.2689,3.2706,3.2713,3.2706,3.2735,3.273,3.2732,3.273,3.2731,3.2733,3.2731,3.2704,0,0,0,0,0,3.2584,3.2599,3.2615,3.2631,3.2637,3.2649,3.2658,3.2663,3.2675,3.268,3.269,3.2702,3.2715,3.2724,3.2736,3.2755,3.2758,3.2763,3.2764,3.2765,3.2767,3.2778,3.278,3.2756,3.2756,3.2756,0,0,3.2587,3.26,3.2608,3.2631,3.2641,3.2655,3.2654,3.2668,3.2679,3.2682,3.27,3.2708,3.2721,3.274,3.2748,3.2746,3.2774,3.2767,3.2767,3.2768,3.2779,3.2782,3.2784,3.2756,3.2756,3.2756,0,0,3.26,3.2611,3.2626,3.2637,3.2653,3.2661,3.2665,3.2682,3.2687,3.2705,3.2709,3.2721,3.2743,3.2753,3.2761,3.2779,3.278,3.2783,3.279,3.2801,3.2803,3.2804,3.2811,3.2814,3.2784,3.2784,3.2784,0,3.2601,3.2624,3.2633,3.2649,3.2658,3.2664,3.2679,3.2688,3.2708,3.2714,3.2711,3.2741,3.275,3.2771,3.2776,3.2782,3.2786,3.2781,3.2802,3.2804,3.2805,3.2812,3.2815,3.2785,3.2785,3.2785,3.2785,0,3.2625,3.264,3.265,3.2671,3.2682,3.2697,3.2708,3.2718,3.2722,3.273,3.2748,3.276,3.2776,3.2781,3.2785,3.2803,3.2802,3.28,3.2795,3.2808,3.2814,3.2817,3.2785,3.2785,3.2785,3.2785,0,0,3.2634,3.2661,3.2665,3.2675,3.2694,3.2706,3.2721,3.2738,3.2747,3.276,3.2773,3.2792,3.2792,3.2801,3.2806,3.2815,3.2829,3.2813,3.2813,3.2816,3.2851,3.2852,3.2855,3.283,3.2831,3.2831,3.285,0,3.265,3.2679,3.2689,3.2713,3.2728,3.2734,3.2747,3.276,3.2768,3.2781,3.2789,3.2804,3.2801,3.2807,3.2817,3.2826,3.2837,3.2824,3.2842,3.2843,3.2839,3.2858,3.2859,3.2877,3.2853,3.2853,3.2853,0,3.2672,3.2688,3.2714,3.2732,3.2739,3.2751,3.2768,3.278,3.2795,3.28,3.2811,3.2816,3.2831,3.2826,3.2848,3.2839,3.2847,3.2853,3.2853,3.2855,3.2849,3.2861,3.2882,3.2885,3.2857,3.2857,3.2857,0,3.2677,3.2705,3.2724,3.2732,3.2754,3.2763,3.2772,3.2787,3.2797,3.2811,3.2817,3.2833,3.2841,3.2853,3.2861,3.2856,3.2882,3.2877,3.2887,3.2887,3.2892,3.2892,3.2915,3.2897,3.2897,3.2897,3.2896,0,3.2694,3.271,3.2727,3.2739,3.2757,3.2768,3.2785,3.2794,3.2807,3.2821,3.2826,3.2838,3.2848,3.2862,3.2868,3.2886,3.2889,3.2893,3.2895,3.2893,3.2893,3.2899,3.2898,3.2897,3.2897,3.2897,3.2897,0,3.2703,3.2716,3.2737,3.2757,3.2762,3.2775,3.2791,3.2803,3.2812,3.2829,3.2833,3.2846,3.2863,3.2872,3.2892,3.2896,3.2916,3.2917,3.2912,3.2912,3.2922,3.2921,3.295,3.2954,3.2933,3.2933,3.2933,0,3.2713,3.2726,3.2747,3.2758,3.2768,3.2784,3.2795,3.2805,3.2816,3.2835,3.2844,3.2861,3.2875,3.2901,3.2912,3.2927,3.2928,3.2937,3.2931,3.2929,3.2929,3.2929,3.293,3.2939,3.2939,3.2939,3.2939,0,3.2729,3.2735,3.2752,3.277,3.2784,3.2798,3.2813,3.2821,3.2834,3.2846,3.2863,3.2875,3.2896,3.2913,3.2929,3.2938,3.2941,3.2941,3.2944,3.2943,3.294,3.2942,3.2915,3.294,3.294,3.294,3.294,3.294,3.274,3.2752,3.2769,3.2787,3.28,3.2814,3.2826,3.2838,3.2853,3.2872,3.2877,3.2896,3.2911,3.2934,3.2943,3.2957,3.2955,3.296,3.2961,3.2962,3.2963,3.2937,3.296,3.296,3.296,3.296,3.296,0,3.2757,3.2769,3.2786,3.2807,3.2821,3.2824,3.2841,3.2852,3.2869,3.2884,3.2898,3.2919,3.2935,3.2948,3.2965,3.2974,3.2976,3.2978,3.2977,3.2979,3.2963,3.2959,3.2976,3.2976,3.2976,3.2976,3.2976,3.2976,3.2768,3.2789,3.2797,3.2824,3.2836,3.2855,3.2865,3.2877,3.2889,3.2913,3.2927,3.2936,3.295,3.2968,3.2983,3.2986,3.2992,3.2995,3.2998,3.2982,3.298,3.2979,3.2975,3.2996,3.2996,3.3014,3.3014,3.3014]}]]